Abingdon, VA

3:48 PM EST on February 09, 2016 (GMT -0500)
Hillside Drive | | Change Station
CLOSE
Current Station
Personal Weather Station
Location: Abingdon, VA
Elevation: 2192 ft
Nearby Weather Stations
Active Advisory: Winter Weather Advisory Active Notice: Local Storm Report

Elev 2192 ft 36.72 °N, 81.98 °W | Updated 34 seconds ago

Snow
Snow
24.1 °F
Feels Like 24 °F
N
1.7
Wind Variable Wind from SSW

Today
High -- | Low -- °F
--% Chance of Precip.
Yesterday
High -- | Low -- °F
Precip. -- in
Pressure 29.70 in
Visibility 10.0 miles
Clouds Scattered Clouds 2900 ft
Overcast 3500 ft
Windchill 24 °F
Dew Point 16 °F
Humidity 70%
Rainfall 0.00 in
Snow Depth Not available.
7:23 AM 6:01 PM
New Moon, 2% visible
METAR KVJI 092035Z AUTO 29008KT 10SM SCT029 OVC035 M04/M11 A2970 RMK AO2 T10431115
Pressure 29.70 in
Visibility 10.0 miles
Clouds Scattered Clouds 2900 ft
Overcast 3500 ft
Windchill 24 °F
Dew Point 16 °F
Humidity 70%
Rainfall 0.00 in
Snow Depth Not available.
7:23 AM 6:01 PM
New Moon, 2% visible
METAR KVJI 092035Z AUTO 29008KT 10SM SCT029 OVC035 M04/M11 A2970 RMK AO2 T10431115

10-Day Weather Forecast

Almanac

Astronomy

Feb. 09, 2016 Rise Set
Actual Time
Civil Twilight
Nautical Twilight
Astronomical Twilight
Moon
Length of Visible Light
Length of Day
Tomorrow will be .
, % of the Moon is Illuminated

Today's Extremes

State Highs State Lows

Community

WunderPhotos

Upload Photos

1,891,683 photos uploaded!

WunderBlog® & News

Nearby

Air Quality

  Air Quality AQ Index Pollutant
Not available.

Snow Depth

Station Depth Elevation

Earthquake Activity

City Distance Mag. Time & Date
Minimum magnitude displayed is 2.5.

Coastal Water Temperatures

Place Temperature

Stations

Nearby Weather Stations

Station Location Temp. Windchill Dew Point Humidity Wind Precip. Elev Updated Type
                   

Watches & Warnings

Winter Weather Advisory
Issued: 10:18 AM EST Feb. 9, 2016 – National Weather Service

... Winter Weather Advisory remains in effect until 7 PM EST
Wednesday...

* event... a series of upper-level disturbances will sweep across
the area over the next couple of days and nights... bringing
several periods of snow showers to the region. During the
event... snowfall amounts will range from 2 to 4 inches over
that period of time... with a few locally higher amounts
possible along the high terrain.

* Timing... continuing today and tonight... then tapering off
Wednesday.

* Impacts... the snow could cause hazardous driving conditions...
especially on secondary roads.

Precautionary/preparedness actions...

A Winter Weather Advisory for snow means that periods of snow are
expected or occurring... but accumulations are expected to be
light. Driving and walking may be difficult on untreated
roadways and sidewalks. Be prepared for snow covered roads and
limited visibilities. If you must travel... slow down and allow
extra time to reach your destination.